Regional Weather Roundup
Issued by NWS

Home | Current Version | Previous Version | Graphics & Text | Print | Product List | Glossary On
Versions: 1 2 3 4 5 6 7 8 9 10 11 12 13 14 15 16 17 18 19 20 21 22 23 24 25 26 27 28 29 30 31 32 33 34 35 36 37 38 39 40 41 42 43 44 45 46 47 48 49 50
000
ASUS43 KFSD 102102
RWRSD

WEATHER ROUNDUP FOR SOUTH DAKOTA
NATIONAL WEATHER SERVICE SIOUX FALLS SD
300 PM CST SAT DEC 10 2016

NOTE: "FAIR" INDICATES FEW OR NO CLOUDS BELOW 12,000 FEET WITH NO
SIGNIFICANT WEATHER AND/OR OBSTRUCTIONS TO VISIBILITY.


SDZ001>005-009-010-012>017-102200-
NORTHWEST AND NORTH CENTRAL SOUTH DAKOTA

CITY           SKY/WX    TMP DP  RH WIND       PRES   REMARKS
BUFFALO          N/A      4  -2  76 SE21      29.71F WCI -17
FAITH            N/A      3  -1  83 SE17      29.90F WCI -17
MOBRIDGE       LGT SNOW   3  -5  69 E14       30.02F WCI -15
$$

SDZ012>016-024>037-041>051-057-063-072>074-102200-
SOUTHWEST AND SOUTH CENTRAL SOUTH DAKOTA

CITY           SKY/WX    TMP DP  RH WIND       PRES   REMARKS
RAPID CTY ARPT CLOUDY     8   2  76 E6        29.80F WCI  -2
PIERRE         CLOUDY     8   2  76 E17       29.99F WCI -10
CUSTER         CLOUDY    37  25  61 W15G24    29.61F
ELLSWORTH AFB  CLOUDY     7   2  80 E7        29.78F WCI  -4
PHILIP         CLOUDY     6   2  83 E13       29.93F WCI -10
PINE RIDGE     CLOUDY    18  13  80 NE8       29.74F WCI   8
SPEARFISH      FAIR       9   3  78 CALM      29.71F
WINNER         CLOUDY    17  13  84 E12       29.92F WCI   4
$$

SDZ004>011-016>023-039-040-102200-
NORTHEAST SOUTH DAKOTA

CITY           SKY/WX    TMP DP  RH WIND       PRES   REMARKS
ABERDEEN       LGT SNOW   6  -2  69 E14       30.16F WCI -11
WATERTOWN      LGT SNOW   4  -1  80 E9        30.11F WCI -10
BROOKINGS      LGT SNOW  10   7  85 E16       30.10F FOG     WCI  -7
SISSETON         N/A      2  -3  80 E8        30.24F WCI -12
$$

SDZ017-020-022-023-036>040-048>070-102200-
SOUTHEAST SOUTH DAKOTA

CITY           SKY/WX    TMP DP  RH WIND       PRES   REMARKS
SIOUX FALLS    FLURRIES  15  12  88 E20G25    30.09F WCI  -2
HURON          CLOUDY    13   9  84 E12       30.07F WCI  -1
CHAMBERLAIN      N/A     16  14  90 E9        29.98F WCI   5
MITCHELL       CLOUDY    17  14  88 SE22      30.04F WCI   0
YANKTON        CLOUDY    21  18  86 E15G21    30.04F WCI   8
$$

ABBREVIATIONS USED IN REMARKS
   TC - TEMPERATURE IN CELSIUS
  WCI - WIND CHILL INDEX
   HX - HEAT INDEX
  VSB - VISIBILITY





USA.gov is the U.S. government's official web portal to all federal, state and local government web resources and services.